Wetterdaten: Montag, 21.09.2015
Datum Zeit Temp. A. Feuchte A. Luftdruck Regen Wind Richtung Richtung Sonnenschein ET UV Solar Taupunkt Windchill Windben Empfang
21.09.2015 00:03 10,8 C 83 % 1022,2 hPa 0,0 l/m 0,0 km/h (0 Bft) O-SO 107 0 min 0,000 mm 0,0 UV-I 0 W/m 8,0 C 10,8 C 0,0 km/h (0 Bft) 0,00 %
21.09.2015 00:08 10,8 C 82 % 1022,0 hPa 0,0 l/m 0,7 km/h (0 Bft) S-SW 204 0 min 0,000 mm 0,0 UV-I 0 W/m 7,9 C 10,8 C 4,0 km/h (1 Bft) 0,00 %
21.09.2015 00:13 10,8 C 82 % 1022,0 hPa 0,0 l/m 0,0 km/h (0 Bft) O-NO 72 0 min 0,000 mm 0,0 UV-I 0 W/m 7,9 C 10,8 C 0,0 km/h (0 Bft) 0,00 %
21.09.2015 00:18 10,9 C 82 % 1022,0 hPa 0,0 l/m 0,4 km/h (0 Bft) SO 124 0 min 0,000 mm 0,0 UV-I 0 W/m 7,9 C 10,9 C 4,0 km/h (1 Bft) 0,00 %
21.09.2015 00:23 10,9 C 82 % 1022,0 hPa 0,0 l/m 1,8 km/h (1 Bft) S-SW 194 0 min 0,000 mm 0,0 UV-I 0 W/m 7,9 C 10,9 C 4,0 km/h (1 Bft) 0,00 %
21.09.2015 00:28 10,9 C 82 % 1022,2 hPa 0,0 l/m 0,4 km/h (0 Bft) O-SO 106 0 min 0,000 mm 0,0 UV-I 0 W/m 7,9 C 10,9 C 4,0 km/h (1 Bft) 0,00 %
21.09.2015 00:33 10,9 C 83 % 1022,1 hPa 0,0 l/m 0,0 km/h (0 Bft) O 79 0 min 0,000 mm 0,0 UV-I 0 W/m 8,1 C 10,9 C 0,0 km/h (0 Bft) 0,00 %
21.09.2015 00:38 10,8 C 83 % 1022,0 hPa 0,0 l/m 0,0 km/h (0 Bft) S 190 0 min 0,000 mm 0,0 UV-I 0 W/m 8,0 C 10,8 C 0,0 km/h (0 Bft) 0,00 %
21.09.2015 00:43 10,8 C 83 % 1021,9 hPa 0,0 l/m 0,0 km/h (0 Bft) S 173 0 min 0,000 mm 0,0 UV-I 0 W/m 8,0 C 10,8 C 0,0 km/h (0 Bft) 0,00 %
21.09.2015 00:48 10,7 C 83 % 1021,7 hPa 0,0 l/m 0,4 km/h (0 Bft) SO 137 0 min 0,000 mm 0,0 UV-I 0 W/m 7,9 C 10,7 C 4,0 km/h (1 Bft) 0,00 %
21.09.2015 00:53 10,7 C 83 % 1022,0 hPa 0,0 l/m 2,2 km/h (1 Bft) S-SW 202 0 min 0,000 mm 0,0 UV-I 0 W/m 7,9 C 10,7 C 4,0 km/h (1 Bft) 0,00 %
21.09.2015 00:58 10,7 C 83 % 1022,1 hPa 0,0 l/m 0,4 km/h (0 Bft) S 175 0 min 0,000 mm 0,0 UV-I 0 W/m 7,9 C 10,7 C 4,0 km/h (1 Bft) 0,00 %
21.09.2015 01:03 10,7 C 84 % 1022,0 hPa 0,0 l/m 0,0 km/h (0 Bft) S 185 0 min 0,000 mm 0,0 UV-I 0 W/m 8,1 C 10,7 C 0,0 km/h (0 Bft) 0,00 %
21.09.2015 01:08 10,6 C 84 % 1021,8 hPa 0,0 l/m 0,7 km/h (0 Bft) O-SO 107 0 min 0,000 mm 0,0 UV-I 0 W/m 8,0 C 10,6 C 4,0 km/h (1 Bft) 0,00 %
21.09.2015 01:13 10,6 C 84 % 1021,7 hPa 0,0 l/m 0,0 km/h (0 Bft) S-SW 195 0 min 0,000 mm 0,0 UV-I 0 W/m 8,0 C 10,6 C 0,0 km/h (0 Bft) 0,00 %
21.09.2015 01:18 10,6 C 84 % 1021,9 hPa 0,0 l/m 0,0 km/h (0 Bft) S-SO 162 0 min 0,000 mm 0,0 UV-I 0 W/m 8,0 C 10,6 C 0,0 km/h (0 Bft) 0,00 %
21.09.2015 01:23 10,6 C 84 % 1022,0 hPa 0,0 l/m 0,0 km/h (0 Bft) S-SO 147 0 min 0,000 mm 0,0 UV-I 0 W/m 8,0 C 10,6 C 0,0 km/h (0 Bft) 0,00 %
21.09.2015 01:28 10,6 C 84 % 1021,8 hPa 0,0 l/m 1,4 km/h (1 Bft) S-SW 211 0 min 0,000 mm 0,0 UV-I 0 W/m 8,0 C 10,6 C 4,0 km/h (1 Bft) 0,00 %
21.09.2015 01:33 10,6 C 84 % 1021,9 hPa 0,0 l/m 0,0 km/h (0 Bft) SW 223 0 min 0,000 mm 0,0 UV-I 0 W/m 8,0 C 10,6 C 0,0 km/h (0 Bft) 0,00 %
21.09.2015 01:38 10,6 C 83 % 1021,9 hPa 0,0 l/m 0,0 km/h (0 Bft) W-SW 255 0 min 0,000 mm 0,0 UV-I 0 W/m 7,8 C 10,6 C 0,0 km/h (0 Bft) 0,00 %
21.09.2015 01:43 10,6 C 83 % 1021,7 hPa 0,0 l/m 0,0 km/h (0 Bft) S 173 0 min 0,000 mm 0,0 UV-I 0 W/m 7,8 C 10,6 C 0,0 km/h (0 Bft) 0,00 %
21.09.2015 01:48 10,5 C 83 % 1021,7 hPa 0,0 l/m 0,0 km/h (0 Bft) NO 56 0 min 0,000 mm 0,0 UV-I 0 W/m 7,7 C 10,5 C 0,0 km/h (0 Bft) 0,00 %
21.09.2015 01:53 10,5 C 83 % 1021,8 hPa 0,0 l/m 0,0 km/h (0 Bft) S 182 0 min 0,000 mm 0,0 UV-I 0 W/m 7,7 C 10,5 C 0,0 km/h (0 Bft) 0,00 %
21.09.2015 01:58 10,5 C 83 % 1021,8 hPa 0,0 l/m 0,0 km/h (0 Bft) S-SW 196 0 min 0,000 mm 0,0 UV-I 0 W/m 7,7 C 10,5 C 0,0 km/h (0 Bft) 0,00 %
21.09.2015 02:03 10,4 C 84 % 1021,6 hPa 0,0 l/m 0,0 km/h (0 Bft) S-SW 201 0 min 0,000 mm 0,0 UV-I 0 W/m 7,8 C 10,4 C 0,0 km/h (0 Bft) 0,00 %
21.09.2015 02:08 10,4 C 84 % 1021,7 hPa 0,0 l/m 0,0 km/h (0 Bft) O-NO 72 0 min 0,000 mm 0,0 UV-I 0 W/m 7,8 C 10,4 C 0,0 km/h (0 Bft) 0,00 %
21.09.2015 02:13 10,3 C 85 % 1021,4 hPa 0,0 l/m 0,0 km/h (0 Bft) O 86 0 min 0,000 mm 0,0 UV-I 0 W/m 7,9 C 10,3 C 0,0 km/h (0 Bft) 0,00 %
21.09.2015 02:18 10,1 C 85 % 1021,6 hPa 0,0 l/m 0,0 km/h (0 Bft) O-NO 73 0 min 0,000 mm 0,0 UV-I 0 W/m 7,7 C 10,1 C 0,0 km/h (0 Bft) 0,00 %
21.09.2015 02:23 10,0 C 87 % 1021,5 hPa 0,0 l/m 0,0 km/h (0 Bft) W-SW 256 0 min 0,000 mm 0,0 UV-I 0 W/m 7,9 C 10,0 C 0,0 km/h (0 Bft) 0,00 %
21.09.2015 02:28 9,8 C 88 % 1021,4 hPa 0,0 l/m 0,0 km/h (0 Bft) O-NO 75 0 min 0,000 mm 0,0 UV-I 0 W/m 7,9 C 9,8 C 0,0 km/h (0 Bft) 0,00 %
21.09.2015 02:33 9,6 C 88 % 1021,4 hPa 0,0 l/m 0,0 km/h (0 Bft) O 94 0 min 0,000 mm 0,0 UV-I 0 W/m 7,7 C 9,6 C 0,0 km/h (0 Bft) 0,00 %
21.09.2015 02:38 9,4 C 89 % 1021,4 hPa 0,0 l/m 0,0 km/h (0 Bft) O 80 0 min 0,000 mm 0,0 UV-I 0 W/m 7,7 C 9,4 C 0,0 km/h (0 Bft) 0,00 %
21.09.2015 02:43 9,2 C 90 % 1021,3 hPa 0,0 l/m 0,0 km/h (0 Bft) O-SO 111 0 min 0,000 mm 0,0 UV-I 0 W/m 7,6 C 9,2 C 0,0 km/h (0 Bft) 0,00 %
21.09.2015 02:48 9,0 C 90 % 1021,4 hPa 0,0 l/m 0,0 km/h (0 Bft) O-SO 121 0 min 0,000 mm 0,0 UV-I 0 W/m 7,4 C 9,0 C 0,0 km/h (0 Bft) 0,00 %
21.09.2015 02:53 8,9 C 92 % 1021,5 hPa 0,0 l/m 0,0 km/h (0 Bft) O-NO 71 0 min 0,000 mm 0,0 UV-I 0 W/m 7,7 C 8,9 C 0,0 km/h (0 Bft) 0,00 %
21.09.2015 02:58 8,8 C 92 % 1021,3 hPa 0,0 l/m 0,0 km/h (0 Bft) O-NO 76 0 min 0,000 mm 0,0 UV-I 0 W/m 7,6 C 8,8 C 0,0 km/h (0 Bft) 0,00 %
21.09.2015 03:03 8,6 C 92 % 1021,3 hPa 0,0 l/m 0,0 km/h (0 Bft) O-NO 61 0 min 0,000 mm 0,0 UV-I 0 W/m 7,4 C 8,6 C 0,0 km/h (0 Bft) 0,00 %
21.09.2015 03:08 8,4 C 92 % 1021,1 hPa 0,0 l/m 0,0 km/h (0 Bft) O-NO 66 0 min 0,000 mm 0,0 UV-I 0 W/m 7,2 C 8,4 C 0,0 km/h (0 Bft) 0,00 %
21.09.2015 03:13 8,3 C 93 % 1021,1 hPa 0,0 l/m 0,0 km/h (0 Bft) O-NO 70 0 min 0,000 mm 0,0 UV-I 0 W/m 7,2 C 8,3 C 0,0 km/h (0 Bft) 0,00 %
21.09.2015 03:18 8,1 C 93 % 1021,2 hPa 0,0 l/m 0,0 km/h (0 Bft) S-SO 153 0 min 0,000 mm 0,0 UV-I 0 W/m 7,0 C 8,1 C 0,0 km/h (0 Bft) 0,00 %
21.09.2015 03:23 8,0 C 94 % 1021,1 hPa 0,0 l/m 0,0 km/h (0 Bft) O 96 0 min 0,000 mm 0,0 UV-I 0 W/m 7,1 C 8,0 C 0,0 km/h (0 Bft) 0,00 %
21.09.2015 03:28 7,8 C 95 % 1021,1 hPa 0,0 l/m 0,0 km/h (0 Bft) SO 136 0 min 0,000 mm 0,0 UV-I 0 W/m 7,0 C 7,8 C 0,0 km/h (0 Bft) 0,00 %
21.09.2015 03:33 7,7 C 95 % 1021,0 hPa 0,0 l/m 0,0 km/h (0 Bft) O 97 0 min 0,000 mm 0,0 UV-I 0 W/m 7,0 C 7,7 C 0,0 km/h (0 Bft) 0,00 %
21.09.2015 03:38 7,7 C 95 % 1021,1 hPa 0,0 l/m 0,0 km/h (0 Bft) O 100 0 min 0,000 mm 0,0 UV-I 0 W/m 7,0 C 7,7 C 0,0 km/h (0 Bft) 0,00 %
21.09.2015 03:43 7,7 C 95 % 1021,0 hPa 0,0 l/m 0,0 km/h (0 Bft) O-SO 119 0 min 0,000 mm 0,0 UV-I 0 W/m 7,0 C 7,7 C 0,0 km/h (0 Bft) 0,00 %
21.09.2015 03:48 7,7 C 96 % 1021,0 hPa 0,0 l/m 0,0 km/h (0 Bft) O-SO 102 0 min 0,000 mm 0,0 UV-I 0 W/m 7,1 C 7,7 C 0,0 km/h (0 Bft) 0,00 %
21.09.2015 03:53 7,8 C 96 % 1020,9 hPa 0,0 l/m 0,0 km/h (0 Bft) S-SW 196 0 min 0,000 mm 0,0 UV-I 0 W/m 7,2 C 7,8 C 0,0 km/h (0 Bft) 0,00 %
21.09.2015 03:58 7,8 C 96 % 1020,9 hPa 0,0 l/m 0,0 km/h (0 Bft) O-SO 113 0 min 0,000 mm 0,0 UV-I 0 W/m 7,2 C 7,8 C 0,0 km/h (0 Bft) 0,00 %
21.09.2015 04:03 7,8 C 96 % 1020,9 hPa 0,0 l/m 0,0 km/h (0 Bft) S 176 0 min 0,000 mm 0,0 UV-I 0 W/m 7,2 C 7,8 C 0,0 km/h (0 Bft) 0,00 %
21.09.2015 04:08 7,7 C 96 % 1020,7 hPa 0,0 l/m 0,0 km/h (0 Bft) O 99 0 min 0,000 mm 0,0 UV-I 0 W/m 7,1 C 7,7 C 0,0 km/h (0 Bft) 0,00 %
21.09.2015 04:13 7,7 C 97 % 1020,9 hPa 0,0 l/m 0,0 km/h (0 Bft) S-SO 161 0 min 0,000 mm 0,0 UV-I 0 W/m 7,3 C 7,7 C 0,0 km/h (0 Bft) 0,00 %
21.09.2015 04:18 7,7 C 97 % 1020,8 hPa 0,0 l/m 2,2 km/h (1 Bft) S 176 0 min 0,000 mm 0,0 UV-I 0 W/m 7,3 C 7,7 C 4,0 km/h (1 Bft) 0,00 %
21.09.2015 04:23 7,8 C 96 % 1020,7 hPa 0,0 l/m 0,7 km/h (0 Bft) S 175 0 min 0,000 mm 0,0 UV-I 0 W/m 7,2 C 7,8 C 4,0 km/h (1 Bft) 0,00 %
21.09.2015 04:28 7,9 C 97 % 1020,7 hPa 0,0 l/m 0,0 km/h (0 Bft) S-SO 164 0 min 0,000 mm 0,0 UV-I 0 W/m 7,5 C 7,9 C 0,0 km/h (0 Bft) 0,00 %
21.09.2015 04:33 7,9 C 97 % 1020,4 hPa 0,0 l/m 0,4 km/h (0 Bft) S-SO 161 0 min 0,000 mm 0,0 UV-I 0 W/m 7,5 C 7,9 C 4,0 km/h (1 Bft) 0,00 %
21.09.2015 04:38 7,8 C 97 % 1020,6 hPa 0,0 l/m 0,0 km/h (0 Bft) SW 221 0 min 0,000 mm 0,0 UV-I 0 W/m 7,4 C 7,8 C 0,0 km/h (0 Bft) 0,00 %
21.09.2015 04:43 7,7 C 97 % 1020,6 hPa 0,0 l/m 0,0 km/h (0 Bft) S-SW 198 0 min 0,000 mm 0,0 UV-I 0 W/m 7,3 C 7,7 C 0,0 km/h (0 Bft) 0,00 %
21.09.2015 04:48 7,6 C 97 % 1020,6 hPa 0,0 l/m 0,0 km/h (0 Bft) O-SO 119 0 min 0,000 mm 0,0 UV-I 0 W/m 7,2 C 7,6 C 0,0 km/h (0 Bft) 0,00 %
21.09.2015 04:53 7,6 C 98 % 1020,6 hPa 0,0 l/m 0,0 km/h (0 Bft) S 176 0 min 0,000 mm 0,0 UV-I 0 W/m 7,3 C 7,6 C 0,0 km/h (0 Bft) 0,00 %
21.09.2015 04:58 7,5 C 97 % 1020,6 hPa 0,0 l/m 0,0 km/h (0 Bft) S 175 0 min 0,000 mm 0,0 UV-I 0 W/m 7,1 C 7,5 C 0,0 km/h (0 Bft) 0,00 %
21.09.2015 05:03 7,5 C 97 % 1020,5 hPa 0,0 l/m 0,0 km/h (0 Bft) S 173 0 min 0,000 mm 0,0 UV-I 0 W/m 7,1 C 7,5 C 0,0 km/h (0 Bft) 0,00 %
21.09.2015 05:08 7,5 C 97 % 1020,4 hPa 0,0 l/m 0,0 km/h (0 Bft) O-NO 76 0 min 0,000 mm 0,0 UV-I 0 W/m 7,1 C 7,5 C 0,0 km/h (0 Bft) 0,00 %
21.09.2015 05:13 7,4 C 97 % 1020,5 hPa 0,0 l/m 0,0 km/h (0 Bft) O 89 0 min 0,000 mm 0,0 UV-I 0 W/m 7,0 C 7,4 C 0,0 km/h (0 Bft) 0,00 %
21.09.2015 05:18 7,3 C 97 % 1020,5 hPa 0,0 l/m 0,0 km/h (0 Bft) O-NO 64 0 min 0,000 mm 0,0 UV-I 0 W/m 6,9 C 7,3 C 0,0 km/h (0 Bft) 0,00 %
21.09.2015 05:23 7,2 C 97 % 1020,4 hPa 0,0 l/m 0,0 km/h (0 Bft) O-NO 77 0 min 0,000 mm 0,0 UV-I 0 W/m 6,8 C 7,2 C 0,0 km/h (0 Bft) 0,00 %
21.09.2015 05:28 7,0 C 97 % 1020,6 hPa 0,0 l/m 0,0 km/h (0 Bft) O-NO 68 0 min 0,000 mm 0,0 UV-I 0 W/m 6,6 C 7,0 C 0,0 km/h (0 Bft) 0,00 %
21.09.2015 05:33 6,8 C 97 % 1020,4 hPa 0,0 l/m 0,0 km/h (0 Bft) O-NO 70 0 min 0,000 mm 0,0 UV-I 0 W/m 6,4 C 6,8 C 0,0 km/h (0 Bft) 0,00 %
21.09.2015 05:38 6,8 C 97 % 1020,6 hPa 0,0 l/m 0,0 km/h (0 Bft) O 81 0 min 0,000 mm 0,0 UV-I 0 W/m 6,4 C 6,8 C 0,0 km/h (0 Bft) 0,00 %
21.09.2015 05:43 6,8 C 97 % 1020,5 hPa 0,0 l/m 0,0 km/h (0 Bft) O 80 0 min 0,000 mm 0,0 UV-I 0 W/m 6,4 C 6,8 C 0,0 km/h (0 Bft) 0,00 %
21.09.2015 05:48 6,6 C 97 % 1020,4 hPa 0,0 l/m 0,0 km/h (0 Bft) O-NO 69 0 min 0,000 mm 0,0 UV-I 0 W/m 6,2 C 6,6 C 0,0 km/h (0 Bft) 0,00 %
21.09.2015 05:53 6,5 C 97 % 1020,5 hPa 0,0 l/m 0,0 km/h (0 Bft) O-NO 58 0 min 0,000 mm 0,0 UV-I 0 W/m 6,1 C 6,5 C 0,0 km/h (0 Bft) 0,00 %
21.09.2015 05:58 6,3 C 97 % 1020,4 hPa 0,0 l/m 0,0 km/h (0 Bft) O-NO 73 0 min 0,000 mm 0,0 UV-I 0 W/m 5,9 C 6,3 C 0,0 km/h (0 Bft) 0,00 %
21.09.2015 06:03 6,2 C 97 % 1020,4 hPa 0,0 l/m 0,0 km/h (0 Bft) O-NO 63 0 min 0,000 mm 0,0 UV-I 0 W/m 5,8 C 6,2 C 0,0 km/h (0 Bft) 0,00 %
21.09.2015 06:08 6,0 C 98 % 1020,6 hPa 0,0 l/m 0,0 km/h (0 Bft) O-NO 67 0 min 0,000 mm 0,0 UV-I 0 W/m 5,7 C 6,0 C 0,0 km/h (0 Bft) 0,00 %
21.09.2015 06:13 5,8 C 98 % 1020,5 hPa 0,0 l/m 0,0 km/h (0 Bft) O-NO 78 0 min 0,000 mm 0,0 UV-I 0 W/m 5,5 C 5,8 C 0,0 km/h (0 Bft) 0,00 %
21.09.2015 06:18 5,7 C 98 % 1020,3 hPa 0,0 l/m 0,0 km/h (0 Bft) O-NO 66 0 min 0,000 mm 0,0 UV-I 0 W/m 5,4 C 5,7 C 0,0 km/h (0 Bft) 0,00 %
21.09.2015 06:23 5,6 C 98 % 1020,3 hPa 0,0 l/m 0,0 km/h (0 Bft) O-NO 63 0 min 0,000 mm 0,0 UV-I 0 W/m 5,3 C 5,6 C 0,0 km/h (0 Bft) 0,00 %
21.09.2015 06:28 5,5 C 98 % 1020,5 hPa 0,0 l/m 0,0 km/h (0 Bft) O-NO 63 0 min 0,000 mm 0,0 UV-I 0 W/m 5,2 C 5,5 C 0,0 km/h (0 Bft) 0,00 %
21.09.2015 06:33 5,4 C 98 % 1020,5 hPa 0,0 l/m 0,0 km/h (0 Bft) O-NO 68 0 min 0,000 mm 0,0 UV-I 0 W/m 5,1 C 5,4 C 0,0 km/h (0 Bft) 0,00 %
21.09.2015 06:38 5,2 C 98 % 1020,5 hPa 0,0 l/m 0,0 km/h (0 Bft) O-NO 67 0 min 0,000 mm 0,0 UV-I 0 W/m 4,9 C 5,2 C 0,0 km/h (0 Bft) 0,00 %
21.09.2015 06:43 5,1 C 98 % 1020,4 hPa 0,0 l/m 0,0 km/h (0 Bft) O-NO 65 0 min 0,000 mm 0,0 UV-I 0 W/m 4,8 C 5,1 C 0,0 km/h (0 Bft) 0,00 %
21.09.2015 06:48 5,1 C 98 % 1020,6 hPa 0,0 l/m 0,0 km/h (0 Bft) O-NO 71 0 min 0,000 mm 0,0 UV-I 0 W/m 4,8 C 5,1 C 0,0 km/h (0 Bft) 0,00 %
21.09.2015 06:53 5,1 C 98 % 1020,6 hPa 0,0 l/m 0,0 km/h (0 Bft) O-NO 67 0 min 0,000 mm 0,0 UV-I 5 W/m 4,8 C 5,1 C 0,0 km/h (0 Bft) 0,00 %
21.09.2015 06:58 5,3 C 98 % 1020,3 hPa 0,0 l/m 0,0 km/h (0 Bft) O-SO 112 0 min 0,000 mm 0,0 UV-I 10 W/m 5,0 C 5,3 C 0,0 km/h (0 Bft) 0,00 %
21.09.2015 07:03 5,5 C 98 % 1020,2 hPa 0,0 l/m 0,0 km/h (0 Bft) O-SO 119 5 min 0,000 mm 0,0 UV-I 19 W/m 5,2 C 5,5 C 0,0 km/h (0 Bft) 0,00 %
21.09.2015 07:08 5,7 C 97 % 1020,2 hPa 0,0 l/m 0,0 km/h (0 Bft) O-SO 119 5 min 0,000 mm 0,0 UV-I 25 W/m 5,3 C 5,7 C 0,0 km/h (0 Bft) 0,00 %
21.09.2015 07:13 5,9 C 97 % 1020,2 hPa 0,0 l/m 0,0 km/h (0 Bft) O-SO 119 5 min 0,000 mm 0,0 UV-I 82 W/m 5,5 C 5,9 C 0,0 km/h (0 Bft) 0,00 %
21.09.2015 07:18 6,1 C 97 % 1020,1 hPa 0,0 l/m 0,0 km/h (0 Bft) O-SO 119 5 min 0,000 mm 0,0 UV-I 89 W/m 5,7 C 6,1 C 0,0 km/h (0 Bft) 0,00 %
21.09.2015 07:23 6,4 C 97 % 1019,7 hPa 0,0 l/m 0,0 km/h (0 Bft) O-SO 119 5 min 0,000 mm 0,0 UV-I 95 W/m 6,0 C 6,4 C 0,0 km/h (0 Bft) 0,00 %
21.09.2015 07:28 6,7 C 99 % 1019,3 hPa 0,0 l/m 0,0 km/h (0 Bft) O-SO 119 5 min 0,000 mm 0,0 UV-I 101 W/m 6,6 C 6,7 C 0,0 km/h (0 Bft) 0,00 %
21.09.2015 07:33 7,0 C 99 % 1019,3 hPa 0,0 l/m 0,0 km/h (0 Bft) O-SO 118 5 min 0,000 mm 0,0 UV-I 106 W/m 6,9 C 7,0 C 0,0 km/h (0 Bft) 0,00 %
21.09.2015 07:38 7,4 C 99 % 1019,3 hPa 0,0 l/m 0,0 km/h (0 Bft) O 87 5 min 0,000 mm 0,0 UV-I 111 W/m 7,3 C 7,4 C 0,0 km/h (0 Bft) 0,00 %
21.09.2015 07:43 7,8 C 99 % 1019,3 hPa 0,0 l/m 0,0 km/h (0 Bft) S 176 5 min 0,000 mm 0,0 UV-I 116 W/m 7,7 C 7,8 C 0,0 km/h (0 Bft) 0,00 %
21.09.2015 07:48 8,1 C 99 % 1019,1 hPa 0,0 l/m 0,0 km/h (0 Bft) SO 124 5 min 0,000 mm 0,0 UV-I 120 W/m 8,0 C 8,1 C 0,0 km/h (0 Bft) 0,00 %
21.09.2015 07:53 8,4 C 99 % 1019,2 hPa 0,0 l/m 0,0 km/h (0 Bft) SO 134 5 min 0,000 mm 0,0 UV-I 125 W/m 8,3 C 8,4 C 0,0 km/h (0 Bft) 0,00 %
21.09.2015 07:58 8,8 C 98 % 1019,3 hPa 0,0 l/m 0,0 km/h (0 Bft) O-NO 64 5 min 0,000 mm 0,0 UV-I 129 W/m 8,5 C 8,8 C 0,0 km/h (0 Bft) 0,00 %
21.09.2015 08:03 9,2 C 98 % 1019,2 hPa 0,0 l/m 0,0 km/h (0 Bft) O 90 5 min 0,000 mm 0,0 UV-I 132 W/m 8,9 C 9,2 C 0,0 km/h (0 Bft) 0,00 %
21.09.2015 08:08 9,7 C 96 % 1019,2 hPa 0,0 l/m 0,0 km/h (0 Bft) O-NO 74 5 min 0,000 mm 0,0 UV-I 132 W/m 9,1 C 9,7 C 0,0 km/h (0 Bft) 0,00 %
21.09.2015 08:13 9,9 C 93 % 1019,1 hPa 0,0 l/m 0,0 km/h (0 Bft) O-NO 74 5 min 0,000 mm 1,0 UV-I 138 W/m 8,8 C 9,9 C 0,0 km/h (0 Bft) 0,00 %
21.09.2015 08:18 9,9 C 90 % 1018,8 hPa 0,0 l/m 0,0 km/h (0 Bft) O-NO 74 5 min 0,000 mm 1,0 UV-I 140 W/m 8,3 C 9,9 C 0,0 km/h (0 Bft) 0,00 %
21.09.2015 08:23 10,2 C 87 % 1018,9 hPa 0,0 l/m 0,0 km/h (0 Bft) O 97 5 min 0,000 mm 1,0 UV-I 143 W/m 8,1 C 10,2 C 0,0 km/h (0 Bft) 0,00 %
21.09.2015 08:28 10,7 C 83 % 1018,8 hPa 0,0 l/m 0,0 km/h (0 Bft) O-NO 67 0 min 0,000 mm 1,0 UV-I 145 W/m 7,9 C 10,7 C 0,0 km/h (0 Bft) 0,00 %
21.09.2015 08:33 11,2 C 82 % 1019,0 hPa 0,0 l/m 0,0 km/h (0 Bft) O-SO 106 0 min 0,000 mm 1,0 UV-I 148 W/m 8,2 C 11,2 C 0,0 km/h (0 Bft) 0,00 %
21.09.2015 08:38 11,7 C 80 % 1018,9 hPa 0,0 l/m 0,0 km/h (0 Bft) O-SO 108 0 min 0,000 mm 1,0 UV-I 150 W/m 8,4 C 11,7 C 0,0 km/h (0 Bft) 0,00 %
21.09.2015 08:43 11,9 C 79 % 1018,9 hPa 0,0 l/m 0,7 km/h (0 Bft) SO 138 0 min 0,000 mm 1,0 UV-I 152 W/m 8,4 C 11,9 C 4,0 km/h (1 Bft) 0,00 %
21.09.2015 08:48 12,2 C 79 % 1018,8 hPa 0,0 l/m 0,0 km/h (0 Bft) O 98 0 min 0,000 mm 1,0 UV-I 152 W/m 8,7 C 12,2 C 0,0 km/h (0 Bft) 0,00 %
21.09.2015 08:53 12,4 C 77 % 1018,9 hPa 0,0 l/m 0,0 km/h (0 Bft) W-NW 299 0 min 0,000 mm 1,0 UV-I 154 W/m 8,5 C 12,4 C 0,0 km/h (0 Bft) 0,00 %
21.09.2015 08:58 12,6 C 77 % 1018,7 hPa 0,0 l/m 0,0 km/h (0 Bft) NO 47 0 min 0,000 mm 1,0 UV-I 154 W/m 8,7 C 12,6 C 0,0 km/h (0 Bft) 0,00 %
21.09.2015 09:03 12,7 C 76 % 1018,8 hPa 0,0 l/m 0,0 km/h (0 Bft) SW 228 0 min 0,000 mm 1,0 UV-I 156 W/m 8,6 C 12,7 C 0,0 km/h (0 Bft) 0,00 %
21.09.2015 09:08 12,8 C 75 % 1018,6 hPa 0,0 l/m 0,0 km/h (0 Bft) SW 234 0 min 0,000 mm 1,0 UV-I 158 W/m 8,5 C 12,8 C 0,0 km/h (0 Bft) 0,00 %
21.09.2015 09:13 12,9 C 75 % 1018,4 hPa 0,0 l/m 3,2 km/h (1 Bft) S-SW 203 0 min 0,000 mm 1,0 UV-I 155 W/m 8,6 C 12,9 C 7,9 km/h (2 Bft) 0,00 %
21.09.2015 09:18 12,9 C 75 % 1018,6 hPa 0,0 l/m 0,7 km/h (0 Bft) S-SW 209 0 min 0,000 mm 1,0 UV-I 166 W/m 8,6 C 12,9 C 4,0 km/h (1 Bft) 0,00 %
21.09.2015 09:23 13,0 C 73 % 1018,7 hPa 0,0 l/m 0,4 km/h (0 Bft) S-SO 160 0 min 0,000 mm 1,0 UV-I 173 W/m 8,3 C 13,0 C 4,0 km/h (1 Bft) 0,00 %
21.09.2015 09:28 13,1 C 72 % 1018,3 hPa 0,0 l/m 0,0 km/h (0 Bft) S 172 0 min 0,000 mm 1,0 UV-I 180 W/m 8,2 C 13,1 C 0,0 km/h (0 Bft) 0,00 %
21.09.2015 09:33 13,4 C 69 % 1018,2 hPa 0,0 l/m 1,8 km/h (1 Bft) SO 141 0 min 0,000 mm 1,0 UV-I 187 W/m 7,8 C 13,4 C 4,0 km/h (1 Bft) 0,00 %
21.09.2015 09:38 13,7 C 67 % 1018,0 hPa 0,0 l/m 0,0 km/h (0 Bft) O-NO 65 0 min 0,000 mm 1,0 UV-I 196 W/m 7,7 C 13,7 C 0,0 km/h (0 Bft) 0,00 %
21.09.2015 09:43 14,0 C 66 % 1017,8 hPa 0,0 l/m 0,0 km/h (0 Bft) N-NO 25 0 min 0,000 mm 1,0 UV-I 206 W/m 7,7 C 14,0 C 0,0 km/h (0 Bft) 0,00 %
21.09.2015 09:48 14,3 C 63 % 1017,9 hPa 0,0 l/m 0,0 km/h (0 Bft) N-NO 30 0 min 0,000 mm 1,0 UV-I 215 W/m 7,4 C 14,3 C 0,0 km/h (0 Bft) 0,00 %
21.09.2015 09:53 14,5 C 63 % 1018,2 hPa 0,0 l/m 0,0 km/h (0 Bft) SO 132 0 min 0,000 mm 1,0 UV-I 225 W/m 7,5 C 14,5 C 0,0 km/h (0 Bft) 0,00 %
21.09.2015 09:58 14,6 C 62 % 1018,2 hPa 0,0 l/m 0,0 km/h (0 Bft) S-SW 197 0 min 0,000 mm 1,0 UV-I 234 W/m 7,4 C 14,6 C 0,0 km/h (0 Bft) 0,00 %
21.09.2015 10:03 14,8 C 62 % 1018,0 hPa 0,0 l/m 0,0 km/h (0 Bft) SW 216 0 min 0,000 mm 1,0 UV-I 245 W/m 7,6 C 14,8 C 0,0 km/h (0 Bft) 0,00 %
21.09.2015 10:08 15,0 C 59 % 1018,0 hPa 0,0 l/m 0,0 km/h (0 Bft) S-SO 159 0 min 0,000 mm 1,0 UV-I 246 W/m 7,1 C 15,0 C 0,0 km/h (0 Bft) 0,00 %
21.09.2015 10:13 15,3 C 59 % 1017,9 hPa 0,0 l/m 0,0 km/h (0 Bft) O-NO 62 0 min 0,000 mm 1,0 UV-I 268 W/m 7,3 C 15,3 C 0,0 km/h (0 Bft) 0,00 %
21.09.2015 10:18 15,3 C 58 % 1017,8 hPa 0,0 l/m 0,4 km/h (0 Bft) S 188 0 min 0,000 mm 1,0 UV-I 281 W/m 7,1 C 15,3 C 4,0 km/h (1 Bft) 0,00 %
21.09.2015 10:24 15,3 C 56 % 1018,0 hPa 0,0 l/m 0,0 km/h (0 Bft) NO 55 0 min 0,000 mm 1,0 UV-I 292 W/m 6,6 C 15,3 C 0,0 km/h (0 Bft) 0,00 %
21.09.2015 10:29 15,3 C 56 % 1017,9 hPa 0,0 l/m 0,0 km/h (0 Bft) O-SO 106 0 min 0,000 mm 1,0 UV-I 256 W/m 6,6 C 15,3 C 0,0 km/h (0 Bft) 0,00 %
21.09.2015 10:34 15,7 C 53 % 1017,8 hPa 0,0 l/m 0,0 km/h (0 Bft) O 86 0 min 0,000 mm 2,0 UV-I 269 W/m 6,1 C 15,7 C 0,0 km/h (0 Bft) 0,00 %
21.09.2015 10:39 16,1 C 51 % 1017,9 hPa 0,0 l/m 0,0 km/h (0 Bft) N-NO 19 0 min 0,000 mm 2,0 UV-I 285 W/m 6,0 C 16,1 C 0,0 km/h (0 Bft) 0,00 %
21.09.2015 10:44 16,3 C 52 % 1018,0 hPa 0,0 l/m 1,4 km/h (1 Bft) SW 221 0 min 0,000 mm 2,0 UV-I 297 W/m 6,4 C 16,3 C 4,0 km/h (1 Bft) 0,00 %
21.09.2015 10:49 16,3 C 51 % 1017,9 hPa 0,0 l/m 4,0 km/h (1 Bft) S-SW 206 0 min 0,000 mm 2,0 UV-I 311 W/m 6,1 C 16,3 C 4,0 km/h (1 Bft) 0,00 %
21.09.2015 10:54 16,4 C 52 % 1017,9 hPa 0,0 l/m 1,8 km/h (1 Bft) S-SO 165 5 min 0,000 mm 2,0 UV-I 327 W/m 6,5 C 16,4 C 4,0 km/h (1 Bft) 0,00 %
21.09.2015 10:59 16,6 C 51 % 1017,9 hPa 0,0 l/m 2,2 km/h (1 Bft) S-SO 154 5 min 0,000 mm 2,0 UV-I 340 W/m 6,4 C 16,6 C 4,0 km/h (1 Bft) 0,00 %
21.09.2015 11:04 16,6 C 51 % 1018,0 hPa 0,0 l/m 0,4 km/h (0 Bft) S-SW 201 5 min 0,000 mm 2,0 UV-I 354 W/m 6,4 C 16,6 C 4,0 km/h (1 Bft) 0,00 %
21.09.2015 11:09 16,7 C 50 % 1018,1 hPa 0,0 l/m 0,0 km/h (0 Bft) NO 54 5 min 0,000 mm 2,0 UV-I 368 W/m 6,2 C 16,7 C 0,0 km/h (0 Bft) 0,00 %
21.09.2015 11:14 16,5 C 52 % 1018,0 hPa 0,0 l/m 0,7 km/h (0 Bft) S 169 5 min 0,000 mm 2,0 UV-I 386 W/m 6,6 C 16,5 C 4,0 km/h (1 Bft) 0,00 %
21.09.2015 11:19 16,4 C 52 % 1017,9 hPa 0,0 l/m 3,2 km/h (1 Bft) S-SW 201 5 min 0,000 mm 2,0 UV-I 410 W/m 6,5 C 16,4 C 4,0 km/h (1 Bft) 0,00 %
21.09.2015 11:24 16,5 C 50 % 1017,8 hPa 0,0 l/m 0,0 km/h (0 Bft) N-NO 25 5 min 0,000 mm 2,0 UV-I 416 W/m 6,0 C 16,5 C 0,0 km/h (0 Bft) 0,00 %
21.09.2015 11:29 16,4 C 49 % 1017,8 hPa 0,0 l/m 0,0 km/h (0 Bft) W 281 5 min 0,000 mm 2,0 UV-I 436 W/m 5,7 C 16,4 C 0,0 km/h (0 Bft) 0,00 %
21.09.2015 11:34 16,2 C 50 % 1017,7 hPa 0,0 l/m 0,0 km/h (0 Bft) O-NO 62 0 min 0,000 mm 2,0 UV-I 140 W/m 5,8 C 16,2 C 0,0 km/h (0 Bft) 0,00 %
21.09.2015 11:39 16,6 C 49 % 1017,7 hPa 0,0 l/m 0,0 km/h (0 Bft) NO 41 5 min 0,000 mm 2,0 UV-I 470 W/m 5,8 C 16,6 C 0,0 km/h (0 Bft) 0,00 %
21.09.2015 11:44 17,1 C 49 % 1017,9 hPa 0,0 l/m 0,0 km/h (0 Bft) O-SO 118 5 min 0,000 mm 2,0 UV-I 489 W/m 6,3 C 17,1 C 0,0 km/h (0 Bft) 0,00 %
21.09.2015 11:49 17,4 C 48 % 1017,7 hPa 0,0 l/m 0,0 km/h (0 Bft) O 88 0 min 0,000 mm 2,0 UV-I 320 W/m 6,3 C 17,4 C 0,0 km/h (0 Bft) 0,00 %
21.09.2015 11:54 17,5 C 47 % 1017,5 hPa 0,0 l/m 0,0 km/h (0 Bft) NO 56 5 min 0,000 mm 2,0 UV-I 552 W/m 6,1 C 17,5 C 0,0 km/h (0 Bft) 0,00 %
21.09.2015 11:59 17,7 C 46 % 1017,5 hPa 0,0 l/m 4,0 km/h (1 Bft) S 178 5 min 0,000 mm 2,0 UV-I 515 W/m 5,9 C 17,7 C 4,0 km/h (1 Bft) 0,00 %
21.09.2015 12:04 18,1 C 47 % 1018,3 hPa 0,0 l/m 0,0 km/h (0 Bft) O 86 5 min 0,000 mm 2,0 UV-I 582 W/m 6,6 C 18,1 C 0,0 km/h (0 Bft) 0,00 %
21.09.2015 12:09 18,4 C 44 % 1017,4 hPa 0,0 l/m 0,0 km/h (0 Bft) O 101 5 min 0,000 mm 2,0 UV-I 572 W/m 5,9 C 18,4 C 0,0 km/h (0 Bft) 0,00 %
21.09.2015 12:14 18,6 C 44 % 1017,6 hPa 0,0 l/m 3,2 km/h (1 Bft) SW 215 0 min 0,000 mm 2,0 UV-I 269 W/m 6,1 C 18,6 C 4,0 km/h (1 Bft) 0,00 %
21.09.2015 12:19 18,4 C 45 % 1017,4 hPa 0,0 l/m 0,0 km/h (0 Bft) O 97 5 min 0,000 mm 2,0 UV-I 633 W/m 6,3 C 18,4 C 0,0 km/h (0 Bft) 0,00 %
21.09.2015 12:24 18,0 C 47 % 1017,2 hPa 0,0 l/m 0,0 km/h (0 Bft) N-NO 23 5 min 0,000 mm 2,0 UV-I 653 W/m 6,5 C 18,0 C 0,0 km/h (0 Bft) 0,00 %
21.09.2015 12:29 17,1 C 47 % 1017,3 hPa 0,0 l/m 0,0 km/h (0 Bft) NO 34 5 min 0,000 mm 2,0 UV-I 667 W/m 5,7 C 17,1 C 0,0 km/h (0 Bft) 0,00 %
21.09.2015 12:34 16,8 C 44 % 1017,1 hPa 0,0 l/m 1,8 km/h (1 Bft) S 177 5 min 0,000 mm 2,0 UV-I 681 W/m 4,5 C 16,8 C 4,0 km/h (1 Bft) 0,00 %
21.09.2015 12:39 17,4 C 43 % 1017,2 hPa 0,0 l/m 0,0 km/h (0 Bft) SW 224 5 min 0,000 mm 3,0 UV-I 697 W/m 4,7 C 17,4 C 0,0 km/h (0 Bft) 0,00 %
21.09.2015 12:44 18,1 C 42 % 1017,1 hPa 0,0 l/m 0,0 km/h (0 Bft) S 180 5 min 0,000 mm 3,0 UV-I 710 W/m 5,0 C 18,1 C 0,0 km/h (0 Bft) 0,00 %
21.09.2015 12:49 18,4 C 42 % 1017,0 hPa 0,0 l/m 0,0 km/h (0 Bft) O-NO 65 5 min 0,000 mm 3,0 UV-I 714 W/m 5,3 C 18,4 C 0,0 km/h (0 Bft) 0,00 %
21.09.2015 12:54 18,1 C 44 % 1017,1 hPa 0,0 l/m 4,0 km/h (1 Bft) S-SW 194 5 min 0,000 mm 3,0 UV-I 705 W/m 5,7 C 18,1 C 7,9 km/h (2 Bft) 0,00 %
21.09.2015 12:59 17,7 C 44 % 1017,0 hPa 0,0 l/m 6,5 km/h (2 Bft) S 191 5 min 0,000 mm 3,0 UV-I 771 W/m 5,3 C 17,7 C 7,9 km/h (2 Bft) 0,00 %
21.09.2015 13:04 17,9 C 44 % 1017,0 hPa 0,0 l/m 0,0 km/h (0 Bft) NO 51 5 min 0,000 mm 3,0 UV-I 743 W/m 5,5 C 17,9 C 0,0 km/h (0 Bft) 0,00 %
21.09.2015 13:09 17,8 C 44 % 1016,9 hPa 0,0 l/m 0,0 km/h (0 Bft) O-NO 70 5 min 0,000 mm 3,0 UV-I 745 W/m 5,4 C 17,8 C 0,0 km/h (0 Bft) 0,00 %
21.09.2015 13:14 17,3 C 44 % 1016,7 hPa 0,0 l/m 4,0 km/h (1 Bft) NW 325 5 min 0,000 mm 3,0 UV-I 751 W/m 4,9 C 17,3 C 7,9 km/h (2 Bft) 0,00 %
21.09.2015 13:19 17,1 C 43 % 1016,8 hPa 0,0 l/m 0,0 km/h (0 Bft) SO 125 5 min 0,000 mm 3,0 UV-I 753 W/m 4,4 C 17,1 C 0,0 km/h (0 Bft) 0,00 %
21.09.2015 13:24 17,5 C 43 % 1016,6 hPa 0,0 l/m 0,0 km/h (0 Bft) SO 128 5 min 0,000 mm 3,0 UV-I 756 W/m 4,8 C 17,5 C 0,0 km/h (0 Bft) 0,00 %
21.09.2015 13:29 18,2 C 39 % 1016,9 hPa 0,0 l/m 0,0 km/h (0 Bft) O-NO 62 5 min 0,000 mm 2,0 UV-I 386 W/m 4,0 C 18,2 C 0,0 km/h (0 Bft) 0,00 %
21.09.2015 13:34 18,4 C 41 % 1016,8 hPa 0,0 l/m 2,9 km/h (1 Bft) S 182 5 min 0,000 mm 2,0 UV-I 751 W/m 4,9 C 18,4 C 4,0 km/h (1 Bft) 0,00 %
21.09.2015 13:39 18,3 C 39 % 1016,8 hPa 0,0 l/m 0,4 km/h (0 Bft) S 191 5 min 0,000 mm 2,0 UV-I 758 W/m 4,1 C 18,3 C 4,0 km/h (1 Bft) 0,00 %
21.09.2015 13:44 18,5 C 39 % 1016,7 hPa 0,0 l/m 0,4 km/h (0 Bft) O 93 5 min 0,000 mm 3,0 UV-I 783 W/m 4,3 C 18,5 C 4,0 km/h (1 Bft) 0,00 %
21.09.2015 13:49 19,1 C 38 % 1016,7 hPa 0,0 l/m 0,0 km/h (0 Bft) O-NO 63 5 min 0,000 mm 3,0 UV-I 801 W/m 4,4 C 19,1 C 0,0 km/h (0 Bft) 0,00 %
21.09.2015 13:54 19,5 C 38 % 1016,5 hPa 0,0 l/m 0,0 km/h (0 Bft) NO 53 5 min 0,000 mm 2,0 UV-I 807 W/m 4,8 C 19,5 C 0,0 km/h (0 Bft) 0,00 %
21.09.2015 13:59 19,8 C 36 % 1016,5 hPa 0,0 l/m 0,0 km/h (0 Bft) NO 52 5 min 0,000 mm 2,0 UV-I 826 W/m 4,3 C 19,8 C 0,0 km/h (0 Bft) 0,00 %
21.09.2015 14:04 19,7 C 36 % 1016,5 hPa 0,0 l/m 0,0 km/h (0 Bft) O-NO 61 5 min 0,000 mm 2,0 UV-I 833 W/m 4,2 C 19,7 C 0,0 km/h (0 Bft) 0,00 %
21.09.2015 14:09 19,3 C 37 % 1016,4 hPa 0,0 l/m 0,0 km/h (0 Bft) N 356 5 min 0,000 mm 1,0 UV-I 820 W/m 4,2 C 19,3 C 0,0 km/h (0 Bft) 0,00 %
21.09.2015 14:14 18,8 C 42 % 1016,3 hPa 0,0 l/m 0,4 km/h (0 Bft) N 352 5 min 0,000 mm 1,0 UV-I 822 W/m 5,6 C 18,8 C 4,0 km/h (1 Bft) 0,00 %
21.09.2015 14:19 18,0 C 42 % 1016,2 hPa 0,0 l/m 0,0 km/h (0 Bft) O 85 5 min 0,000 mm 1,0 UV-I 820 W/m 4,9 C 18,0 C 0,0 km/h (0 Bft) 0,00 %
21.09.2015 14:24 17,6 C 41 % 1016,1 hPa 0,0 l/m 0,0 km/h (0 Bft) O-NO 59 5 min 0,000 mm 1,0 UV-I 811 W/m 4,2 C 17,6 C 0,0 km/h (0 Bft) 0,00 %
21.09.2015 14:29 17,7 C 42 % 1016,2 hPa 0,0 l/m 0,0 km/h (0 Bft) NO 54 5 min 0,000 mm 1,0 UV-I 824 W/m 4,6 C 17,7 C 0,0 km/h (0 Bft) 0,00 %
21.09.2015 14:34 17,5 C 42 % 1016,1 hPa 0,0 l/m 0,0 km/h (0 Bft) NO 52 5 min 0,000 mm 1,0 UV-I 830 W/m 4,4 C 17,5 C 0,0 km/h (0 Bft) 0,00 %
21.09.2015 14:39 17,7 C 41 % 1016,1 hPa 0,0 l/m 0,0 km/h (0 Bft) O-SO 115 5 min 0,000 mm 1,0 UV-I 823 W/m 4,3 C 17,7 C 0,0 km/h (0 Bft) 0,00 %
21.09.2015 14:44 18,1 C 39 % 1015,9 hPa 0,0 l/m 0,0 km/h (0 Bft) O 84 5 min 0,000 mm 1,0 UV-I 819 W/m 3,9 C 18,1 C 0,0 km/h (0 Bft) 0,00 %
21.09.2015 14:49 18,4 C 40 % 1015,9 hPa 0,0 l/m 0,0 km/h (0 Bft) NO 54 5 min 0,000 mm 1,0 UV-I 820 W/m 4,6 C 18,4 C 0,0 km/h (0 Bft) 0,00 %
21.09.2015 14:54 18,6 C 38 % 1015,8 hPa 0,0 l/m 0,0 km/h (0 Bft) NO 53 5 min 0,000 mm 1,0 UV-I 817 W/m 4,0 C 18,6 C 0,0 km/h (0 Bft) 0,00 %
21.09.2015 14:59 18,4 C 40 % 1015,8 hPa 0,0 l/m 0,0 km/h (0 Bft) O 82 5 min 0,000 mm 1,0 UV-I 814 W/m 4,6 C 18,4 C 0,0 km/h (0 Bft) 0,00 %
21.09.2015 15:04 18,2 C 38 % 1015,7 hPa 0,0 l/m 0,0 km/h (0 Bft) O 84 5 min 0,000 mm 1,0 UV-I 803 W/m 3,7 C 18,2 C 0,0 km/h (0 Bft) 0,00 %
21.09.2015 15:09 18,4 C 38 % 1015,7 hPa 0,0 l/m 0,0 km/h (0 Bft) O-NO 73 5 min 0,000 mm 1,0 UV-I 820 W/m 3,8 C 18,4 C 0,0 km/h (0 Bft) 0,00 %
21.09.2015 15:14 18,4 C 39 % 1015,6 hPa 0,0 l/m 0,0 km/h (0 Bft) O 99 5 min 0,000 mm 1,0 UV-I 818 W/m 4,2 C 18,4 C 0,0 km/h (0 Bft) 0,00 %
21.09.2015 15:19 18,5 C 36 % 1015,6 hPa 0,0 l/m 0,0 km/h (0 Bft) O 91 5 min 0,000 mm 1,0 UV-I 805 W/m 3,2 C 18,5 C 0,0 km/h (0 Bft) 0,00 %
21.09.2015 15:24 18,9 C 39 % 1015,6 hPa 0,0 l/m 0,0 km/h (0 Bft) O-SO 103 5 min 0,000 mm 1,0 UV-I 802 W/m 4,6 C 18,9 C 0,0 km/h (0 Bft) 0,00 %
21.09.2015 15:29 19,1 C 36 % 1015,5 hPa 0,0 l/m 0,0 km/h (0 Bft) N-NO 26 5 min 0,000 mm 1,0 UV-I 813 W/m 3,7 C 19,1 C 0,0 km/h (0 Bft) 0,00 %
21.09.2015 15:34 18,7 C 38 % 1015,5 hPa 0,0 l/m 0,0 km/h (0 Bft) O-NO 61 5 min 0,000 mm 1,0 UV-I 799 W/m 4,1 C 18,7 C 0,0 km/h (0 Bft) 0,00 %
21.09.2015 15:39 18,3 C 35 % 1015,3 hPa 0,0 l/m 1,4 km/h (1 Bft) NO 55 5 min 0,000 mm 1,0 UV-I 794 W/m 2,6 C 18,3 C 4,0 km/h (1 Bft) 0,00 %
21.09.2015 15:44 18,4 C 38 % 1015,1 hPa 0,0 l/m 0,0 km/h (0 Bft) O-NO 73 5 min 0,000 mm 1,0 UV-I 778 W/m 3,8 C 18,4 C 0,0 km/h (0 Bft) 0,00 %
21.09.2015 15:49 18,6 C 36 % 1015,5 hPa 0,0 l/m 0,4 km/h (0 Bft) O-SO 111 5 min 0,000 mm 1,0 UV-I 782 W/m 3,2 C 18,6 C 4,0 km/h (1 Bft) 0,00 %
21.09.2015 15:54 18,8 C 32 % 1015,1 hPa 0,0 l/m 1,8 km/h (1 Bft) O-NO 77 5 min 0,000 mm 1,0 UV-I 770 W/m 1,8 C 18,8 C 4,0 km/h (1 Bft) 0,00 %
21.09.2015 15:59 19,0 C 34 % 1015,3 hPa 0,0 l/m 4,0 km/h (1 Bft) O-SO 103 5 min 0,000 mm 1,0 UV-I 742 W/m 2,8 C 19,0 C 4,0 km/h (1 Bft) 0,00 %
21.09.2015 16:04 18,8 C 34 % 1015,1 hPa 0,0 l/m 0,0 km/h (0 Bft) NO 52 5 min 0,000 mm 1,0 UV-I 749 W/m 2,6 C 18,8 C 0,0 km/h (0 Bft) 0,00 %
21.09.2015 16:09 18,8 C 33 % 1015,2 hPa 0,0 l/m 0,0 km/h (0 Bft) O-NO 61 5 min 0,000 mm 1,0 UV-I 717 W/m 2,2 C 18,8 C 0,0 km/h (0 Bft) 0,00 %
21.09.2015 16:14 19,1 C 32 % 1015,0 hPa 0,0 l/m 2,9 km/h (1 Bft) O-SO 102 5 min 0,000 mm 1,0 UV-I 718 W/m 2,0 C 19,1 C 4,0 km/h (1 Bft) 0,00 %
21.09.2015 16:19 19,5 C 32 % 1015,0 hPa 0,0 l/m 0,0 km/h (0 Bft) O-NO 67 5 min 0,000 mm 1,0 UV-I 748 W/m 2,4 C 19,5 C 0,0 km/h (0 Bft) 0,00 %
21.09.2015 16:24 19,5 C 34 % 1015,1 hPa 0,0 l/m 4,0 km/h (1 Bft) O-SO 107 5 min 0,000 mm 1,0 UV-I 730 W/m 3,2 C 19,5 C 4,0 km/h (1 Bft) 0,00 %
21.09.2015 16:29 19,0 C 35 % 1015,0 hPa 0,0 l/m 0,0 km/h (0 Bft) NO 34 5 min 0,000 mm 1,0 UV-I 734 W/m 3,2 C 19,0 C 0,0 km/h (0 Bft) 0,00 %
21.09.2015 16:34 18,5 C 36 % 1015,1 hPa 0,0 l/m 0,0 km/h (0 Bft) O-SO 110 5 min 0,000 mm 1,0 UV-I 716 W/m 3,2 C 18,5 C 0,0 km/h (0 Bft) 0,00 %
21.09.2015 16:39 18,5 C 36 % 1015,0 hPa 0,0 l/m 0,0 km/h (0 Bft) N 352 5 min 0,000 mm 1,0 UV-I 703 W/m 3,2 C 18,5 C 0,0 km/h (0 Bft) 0,00 %
21.09.2015 16:44 18,7 C 34 % 1015,1 hPa 0,0 l/m 0,0 km/h (0 Bft) NO 55 5 min 0,000 mm 1,0 UV-I 704 W/m 2,5 C 18,7 C 0,0 km/h (0 Bft) 0,00 %
21.09.2015 16:49 19,0 C 34 % 1015,0 hPa 0,0 l/m 0,0 km/h (0 Bft) NO 50 5 min 0,000 mm 1,0 UV-I 686 W/m 2,8 C 19,0 C 0,0 km/h (0 Bft) 0,00 %
21.09.2015 16:54 18,6 C 38 % 1014,9 hPa 0,0 l/m 0,0 km/h (0 Bft) O-NO 63 5 min 0,000 mm 1,0 UV-I 659 W/m 4,0 C 18,6 C 0,0 km/h (0 Bft) 0,00 %
21.09.2015 16:59 17,9 C 38 % 1014,8 hPa 0,0 l/m 0,0 km/h (0 Bft) NO 49 5 min 0,000 mm 1,0 UV-I 644 W/m 3,4 C 17,9 C 0,0 km/h (0 Bft) 0,00 %
21.09.2015 17:04 17,7 C 38 % 1014,8 hPa 0,0 l/m 5,4 km/h (1 Bft) O 88 5 min 0,000 mm 1,0 UV-I 627 W/m 3,2 C 17,7 C 7,9 km/h (2 Bft) 0,00 %
21.09.2015 17:09 17,7 C 37 % 1014,8 hPa 0,0 l/m 0,0 km/h (0 Bft) NO 49 5 min 0,000 mm 1,0 UV-I 602 W/m 2,8 C 17,7 C 0,0 km/h (0 Bft) 0,00 %
21.09.2015 17:14 17,6 C 37 % 1014,7 hPa 0,0 l/m 1,4 km/h (1 Bft) O-NO 74 5 min 0,000 mm 1,0 UV-I 590 W/m 2,7 C 17,6 C 4,0 km/h (1 Bft) 0,00 %
21.09.2015 17:19 17,5 C 36 % 1014,8 hPa 0,0 l/m 0,0 km/h (0 Bft) O-NO 62 5 min 0,000 mm 1,0 UV-I 588 W/m 2,3 C 17,5 C 0,0 km/h (0 Bft) 0,00 %
21.09.2015 17:24 17,6 C 36 % 1014,8 hPa 0,0 l/m 0,0 km/h (0 Bft) O-NO 68 5 min 0,000 mm 1,0 UV-I 569 W/m 2,4 C 17,6 C 0,0 km/h (0 Bft) 0,00 %
21.09.2015 17:29 17,6 C 36 % 1014,6 hPa 0,0 l/m 1,8 km/h (1 Bft) O-SO 102 5 min 0,000 mm 1,0 UV-I 559 W/m 2,4 C 17,6 C 4,0 km/h (1 Bft) 0,00 %
21.09.2015 17:34 17,7 C 36 % 1014,7 hPa 0,0 l/m 0,0 km/h (0 Bft) O 84 5 min 0,000 mm 1,0 UV-I 545 W/m 2,4 C 17,7 C 0,0 km/h (0 Bft) 0,00 %
21.09.2015 17:39 17,7 C 35 % 1014,5 hPa 0,0 l/m 0,0 km/h (0 Bft) O-NO 68 5 min 0,000 mm 1,0 UV-I 528 W/m 2,1 C 17,7 C 0,0 km/h (0 Bft) 0,00 %
21.09.2015 17:44 17,6 C 37 % 1014,6 hPa 0,0 l/m 0,0 km/h (0 Bft) O-NO 58 5 min 0,000 mm 1,0 UV-I 503 W/m 2,7 C 17,6 C 0,0 km/h (0 Bft) 0,00 %
21.09.2015 17:49 17,6 C 37 % 1014,5 hPa 0,0 l/m 0,0 km/h (0 Bft) O-NO 65 5 min 0,000 mm 1,0 UV-I 475 W/m 2,7 C 17,6 C 0,0 km/h (0 Bft) 0,00 %
21.09.2015 17:54 17,4 C 38 % 1014,6 hPa 0,0 l/m 1,4 km/h (1 Bft) O 91 5 min 0,000 mm 1,0 UV-I 447 W/m 2,9 C 17,4 C 4,0 km/h (1 Bft) 0,00 %
21.09.2015 17:59 17,3 C 38 % 1014,5 hPa 0,0 l/m 0,4 km/h (0 Bft) O-SO 122 5 min 0,000 mm 0,0 UV-I 424 W/m 2,9 C 17,3 C 4,0 km/h (1 Bft) 0,00 %
21.09.2015 18:04 17,3 C 37 % 1014,5 hPa 0,0 l/m 0,0 km/h (0 Bft) O-NO 58 5 min 0,000 mm 0,0 UV-I 396 W/m 2,5 C 17,3 C 0,0 km/h (0 Bft) 0,00 %
21.09.2015 18:09 17,3 C 36 % 1014,5 hPa 0,0 l/m 0,4 km/h (0 Bft) O 88 5 min 0,000 mm 0,0 UV-I 365 W/m 2,1 C 17,3 C 4,0 km/h (1 Bft) 0,00 %
21.09.2015 18:14 17,3 C 37 % 1014,3 hPa 0,0 l/m 0,0 km/h (0 Bft) O 79 5 min 0,000 mm 0,0 UV-I 326 W/m 2,5 C 17,3 C 0,0 km/h (0 Bft) 0,00 %
21.09.2015 18:19 17,2 C 37 % 1014,2 hPa 0,0 l/m 0,0 km/h (0 Bft) O 88 5 min 0,000 mm 0,0 UV-I 284 W/m 2,4 C 17,2 C 0,0 km/h (0 Bft) 0,00 %
21.09.2015 18:24 17,1 C 38 % 1014,3 hPa 0,0 l/m 0,0 km/h (0 Bft) O 79 5 min 0,000 mm 0,0 UV-I 247 W/m 2,7 C 17,1 C 0,0 km/h (0 Bft) 0,00 %
21.09.2015 18:29 17,0 C 39 % 1014,3 hPa 0,0 l/m 0,0 km/h (0 Bft) O-NO 64 5 min 0,000 mm 0,0 UV-I 214 W/m 2,9 C 17,0 C 0,0 km/h (0 Bft) 0,00 %
21.09.2015 18:34 16,9 C 39 % 1014,3 hPa 0,0 l/m 0,0 km/h (0 Bft) O-NO 74 5 min 0,000 mm 0,0 UV-I 182 W/m 2,9 C 16,9 C 0,0 km/h (0 Bft) 0,00 %
21.09.2015 18:39 16,7 C 39 % 1014,2 hPa 0,0 l/m 0,0 km/h (0 Bft) O 98 5 min 0,000 mm 0,0 UV-I 132 W/m 2,7 C 16,7 C 0,0 km/h (0 Bft) 0,00 %
21.09.2015 18:44 16,5 C 40 % 1014,3 hPa 0,0 l/m 0,0 km/h (0 Bft) O-NO 76 5 min 0,000 mm 0,0 UV-I 102 W/m 2,9 C 16,5 C 0,0 km/h (0 Bft) 0,00 %
21.09.2015 18:49 16,2 C 42 % 1014,3 hPa 0,0 l/m 0,0 km/h (0 Bft) O-SO 116 5 min 0,000 mm 0,0 UV-I 32 W/m 3,3 C 16,2 C 0,0 km/h (0 Bft) 0,00 %
21.09.2015 18:54 15,8 C 43 % 1014,2 hPa 0,0 l/m 0,0 km/h (0 Bft) O-NO 64 5 min 0,000 mm 0,0 UV-I 20 W/m 3,3 C 15,8 C 0,0 km/h (0 Bft) 0,00 %
21.09.2015 18:59 15,5 C 44 % 1014,2 hPa 0,0 l/m 0,0 km/h (0 Bft) O-NO 73 0 min 0,000 mm 0,0 UV-I 10 W/m 3,3 C 15,5 C 0,0 km/h (0 Bft) 0,00 %
21.09.2015 19:04 15,0 C 47 % 1014,1 hPa 0,0 l/m 0,0 km/h (0 Bft) O 82 0 min 0,000 mm 0,0 UV-I 3 W/m 3,8 C 15,0 C 0,0 km/h (0 Bft) 0,00 %
21.09.2015 19:09 14,6 C 50 % 1014,1 hPa 0,0 l/m 0,0 km/h (0 Bft) O 86 0 min 0,000 mm 0,0 UV-I 0 W/m 4,3 C 14,6 C 0,0 km/h (0 Bft) 0,00 %
21.09.2015 19:14 14,2 C 51 % 1014,2 hPa 0,0 l/m 0,0 km/h (0 Bft) O 86 0 min 0,000 mm 0,0 UV-I 0 W/m 4,2 C 14,2 C 0,0 km/h (0 Bft) 0,00 %
21.09.2015 19:19 13,9 C 53 % 1014,2 hPa 0,0 l/m 0,0 km/h (0 Bft) O 82 0 min 0,000 mm 0,0 UV-I 0 W/m 4,5 C 13,9 C 0,0 km/h (0 Bft) 0,00 %
21.09.2015 19:24 13,7 C 53 % 1013,9 hPa 0,0 l/m 0,0 km/h (0 Bft) O 82 0 min 0,000 mm 0,0 UV-I 0 W/m 4,3 C 13,7 C 0,0 km/h (0 Bft) 0,00 %
21.09.2015 19:29 13,4 C 54 % 1014,1 hPa 0,0 l/m 0,0 km/h (0 Bft) O 92 0 min 0,000 mm 0,0 UV-I 0 W/m 4,3 C 13,4 C 0,0 km/h (0 Bft) 0,00 %
21.09.2015 19:34 13,1 C 57 % 1014,3 hPa 0,0 l/m 0,0 km/h (0 Bft) O 88 0 min 0,000 mm 0,0 UV-I 0 W/m 4,8 C 13,1 C 0,0 km/h (0 Bft) 0,00 %
21.09.2015 19:39 12,9 C 58 % 1014,0 hPa 0,0 l/m 0,0 km/h (0 Bft) O-NO 64 0 min 0,000 mm 0,0 UV-I 0 W/m 4,8 C 12,9 C 0,0 km/h (0 Bft) 0,00 %
21.09.2015 19:44 12,6 C 59 % 1014,1 hPa 0,0 l/m 0,0 km/h (0 Bft) O-NO 72 0 min 0,000 mm 0,0 UV-I 0 W/m 4,8 C 12,6 C 0,0 km/h (0 Bft) 0,00 %
21.09.2015 19:49 12,4 C 60 % 1014,2 hPa 0,0 l/m 0,0 km/h (0 Bft) O-NO 66 0 min 0,000 mm 0,0 UV-I 0 W/m 4,9 C 12,4 C 0,0 km/h (0 Bft) 0,00 %
21.09.2015 19:54 12,3 C 61 % 1014,2 hPa 0,0 l/m 0,0 km/h (0 Bft) O-NO 68 0 min 0,000 mm 0,0 UV-I 0 W/m 5,0 C 12,3 C 0,0 km/h (0 Bft) 0,00 %
21.09.2015 19:59 12,1 C 61 % 1014,2 hPa 0,0 l/m 0,0 km/h (0 Bft) O-NO 76 0 min 0,000 mm 0,0 UV-I 0 W/m 4,8 C 12,1 C 0,0 km/h (0 Bft) 0,00 %
21.09.2015 20:04 12,1 C 62 % 1014,2 hPa 0,0 l/m 0,0 km/h (0 Bft) O-NO 68 0 min 0,000 mm 0,0 UV-I 0 W/m 5,0 C 12,1 C 0,0 km/h (0 Bft) 0,00 %
21.09.2015 20:09 12,0 C 62 % 1014,3 hPa 0,0 l/m 0,0 km/h (0 Bft) O-SO 112 0 min 0,000 mm 0,0 UV-I 0 W/m 4,9 C 12,0 C 0,0 km/h (0 Bft) 0,00 %
21.09.2015 20:14 12,0 C 62 % 1014,2 hPa 0,0 l/m 0,0 km/h (0 Bft) O 95 0 min 0,000 mm 0,0 UV-I 0 W/m 4,9 C 12,0 C 0,0 km/h (0 Bft) 0,00 %
21.09.2015 20:19 12,0 C 62 % 1014,1 hPa 0,0 l/m 0,0 km/h (0 Bft) O-SO 109 0 min 0,000 mm 0,0 UV-I 0 W/m 4,9 C 12,0 C 0,0 km/h (0 Bft) 0,00 %
21.09.2015 20:24 11,9 C 62 % 1014,0 hPa 0,0 l/m 0,0 km/h (0 Bft) O 84 0 min 0,000 mm 0,0 UV-I 0 W/m 4,9 C 11,9 C 0,0 km/h (0 Bft) 0,00 %
21.09.2015 20:29 11,8 C 62 % 1014,2 hPa 0,0 l/m 0,0 km/h (0 Bft) O-NO 77 0 min 0,000 mm 0,0 UV-I 0 W/m 4,8 C 11,8 C 0,0 km/h (0 Bft) 0,00 %
21.09.2015 20:34 11,8 C 63 % 1014,1 hPa 0,0 l/m 0,0 km/h (0 Bft) O-NO 64 0 min 0,000 mm 0,0 UV-I 0 W/m 5,0 C 11,8 C 0,0 km/h (0 Bft) 0,00 %
21.09.2015 20:39 11,7 C 63 % 1013,9 hPa 0,0 l/m 0,0 km/h (0 Bft) O 98 0 min 0,000 mm 0,0 UV-I 0 W/m 4,9 C 11,7 C 0,0 km/h (0 Bft) 0,00 %
21.09.2015 20:44 11,5 C 64 % 1013,9 hPa 0,0 l/m 0,0 km/h (0 Bft) O 89 0 min 0,000 mm 0,0 UV-I 0 W/m 4,9 C 11,5 C 0,0 km/h (0 Bft) 0,00 %
21.09.2015 20:49 11,4 C 65 % 1013,9 hPa 0,0 l/m 0,0 km/h (0 Bft) O-NO 61 0 min 0,000 mm 0,0 UV-I 0 W/m 5,1 C 11,4 C 0,0 km/h (0 Bft) 0,00 %
21.09.2015 20:54 11,2 C 65 % 1014,0 hPa 0,0 l/m 0,0 km/h (0 Bft) O-SO 117 0 min 0,000 mm 0,0 UV-I 0 W/m 4,9 C 11,2 C 0,0 km/h (0 Bft) 0,00 %
21.09.2015 20:59 11,2 C 66 % 1013,9 hPa 0,0 l/m 0,0 km/h (0 Bft) O 93 0 min 0,000 mm 0,0 UV-I 0 W/m 5,1 C 11,2 C 0,0 km/h (0 Bft) 0,00 %
21.09.2015 21:04 11,2 C 67 % 1014,0 hPa 0,0 l/m 0,0 km/h (0 Bft) O-NO 63 0 min 0,000 mm 0,0 UV-I 0 W/m 5,3 C 11,2 C 0,0 km/h (0 Bft) 0,00 %
21.09.2015 21:09 11,1 C 67 % 1013,8 hPa 0,0 l/m 0,0 km/h (0 Bft) NO 56 0 min 0,000 mm 0,0 UV-I 0 W/m 5,2 C 11,1 C 0,0 km/h (0 Bft) 0,00 %
21.09.2015 21:14 11,0 C 68 % 1013,9 hPa 0,0 l/m 1,4 km/h (1 Bft) O-NO 72 0 min 0,000 mm 0,0 UV-I 0 W/m 5,3 C 11,0 C 4,0 km/h (1 Bft) 0,00 %
21.09.2015 21:19 10,9 C 69 % 1013,8 hPa 0,0 l/m 0,0 km/h (0 Bft) O-NO 72 0 min 0,000 mm 0,0 UV-I 0 W/m 5,4 C 10,9 C 0,0 km/h (0 Bft) 0,00 %
21.09.2015 21:24 10,8 C 69 % 1013,7 hPa 0,0 l/m 0,0 km/h (0 Bft) O-NO 71 0 min 0,000 mm 0,0 UV-I 0 W/m 5,3 C 10,8 C 0,0 km/h (0 Bft) 0,00 %
21.09.2015 21:29 10,7 C 69 % 1013,8 hPa 0,0 l/m 0,0 km/h (0 Bft) O-NO 70 0 min 0,000 mm 0,0 UV-I 0 W/m 5,2 C 10,7 C 0,0 km/h (0 Bft) 0,00 %
21.09.2015 21:34 10,7 C 69 % 1013,3 hPa 0,0 l/m 0,0 km/h (0 Bft) O-SO 103 0 min 0,000 mm 0,0 UV-I 0 W/m 5,2 C 10,7 C 0,0 km/h (0 Bft) 0,00 %
21.09.2015 21:39 10,6 C 69 % 1013,4 hPa 0,0 l/m 2,9 km/h (1 Bft) O 89 0 min 0,000 mm 0,0 UV-I 0 W/m 5,2 C 10,6 C 4,0 km/h (1 Bft) 0,00 %
21.09.2015 21:44 10,7 C 69 % 1013,3 hPa 0,0 l/m 0,0 km/h (0 Bft) NO 51 0 min 0,000 mm 0,0 UV-I 0 W/m 5,2 C 10,7 C 0,0 km/h (0 Bft) 0,00 %
21.09.2015 21:49 10,6 C 70 % 1013,5 hPa 0,0 l/m 0,0 km/h (0 Bft) O 86 0 min 0,000 mm 0,0 UV-I 0 W/m 5,4 C 10,6 C 0,0 km/h (0 Bft) 0,00 %
21.09.2015 21:54 10,6 C 70 % 1013,2 hPa 0,0 l/m 0,0 km/h (0 Bft) O 81 0 min 0,000 mm 0,0 UV-I 0 W/m 5,4 C 10,6 C 0,0 km/h (0 Bft) 0,00 %
21.09.2015 21:59 10,3 C 71 % 1013,0 hPa 0,0 l/m 0,0 km/h (0 Bft) O-NO 73 0 min 0,000 mm 0,0 UV-I 0 W/m 5,3 C 10,3 C 0,0 km/h (0 Bft) 0,00 %
21.09.2015 22:04 10,3 C 71 % 1013,0 hPa 0,0 l/m 0,0 km/h (0 Bft) O-NO 73 0 min 0,000 mm 0,0 UV-I 0 W/m 5,3 C 10,3 C 0,0 km/h (0 Bft) 0,00 %
21.09.2015 22:09 10,3 C 71 % 1012,9 hPa 0,0 l/m 0,0 km/h (0 Bft) O-NO 73 0 min 0,000 mm 0,0 UV-I 0 W/m 5,3 C 10,3 C 0,0 km/h (0 Bft) 0,00 %
21.09.2015 22:14 10,3 C 71 % 1013,1 hPa 0,0 l/m 0,0 km/h (0 Bft) O-NO 73 0 min 0,000 mm 0,0 UV-I 0 W/m 5,3 C 10,3 C 0,0 km/h (0 Bft) 0,00 %
21.09.2015 22:19 10,3 C 71 % 1013,0 hPa 0,0 l/m 0,0 km/h (0 Bft) O-NO 73 0 min 0,000 mm 0,0 UV-I 0 W/m 5,3 C 10,3 C 0,0 km/h (0 Bft) 0,00 %
21.09.2015 22:24 10,3 C 71 % 1012,9 hPa 0,0 l/m 0,0 km/h (0 Bft) O-NO 73 0 min 0,000 mm 0,0 UV-I 0 W/m 5,3 C 10,3 C 0,0 km/h (0 Bft) 0,00 %
21.09.2015 22:29 9,6 C 77 % 1012,9 hPa 0,0 l/m 0,0 km/h (0 Bft) NO 50 0 min 0,000 mm 0,0 UV-I 0 W/m 5,8 C 9,6 C 0,0 km/h (0 Bft) 0,00 %
21.09.2015 22:34 9,5 C 77 % 1013,1 hPa 0,0 l/m 0,0 km/h (0 Bft) NO 53 0 min 0,000 mm 0,0 UV-I 0 W/m 5,7 C 9,5 C 0,0 km/h (0 Bft) 0,00 %
21.09.2015 22:39 9,5 C 78 % 1012,7 hPa 0,0 l/m 0,0 km/h (0 Bft) O-SO 105 0 min 0,000 mm 0,0 UV-I 0 W/m 5,9 C 9,5 C 0,0 km/h (0 Bft) 0,00 %
21.09.2015 22:44 9,4 C 78 % 1012,8 hPa 0,0 l/m 0,0 km/h (0 Bft) O-NO 67 0 min 0,000 mm 0,0 UV-I 0 W/m 5,8 C 9,4 C 0,0 km/h (0 Bft) 0,00 %
21.09.2015 22:49 9,4 C 78 % 1012,7 hPa 0,0 l/m 0,0 km/h (0 Bft) O-SO 105 0 min 0,000 mm 0,0 UV-I 0 W/m 5,8 C 9,4 C 0,0 km/h (0 Bft) 0,00 %
21.09.2015 22:54 9,4 C 78 % 1012,7 hPa 0,0 l/m 0,0 km/h (0 Bft) O 93 0 min 0,000 mm 0,0 UV-I 0 W/m 5,8 C 9,4 C 0,0 km/h (0 Bft) 0,00 %
21.09.2015 22:59 9,5 C 78 % 1013,1 hPa 0,0 l/m 0,7 km/h (0 Bft) O 84 0 min 0,000 mm 0,0 UV-I 0 W/m 5,9 C 9,5 C 4,0 km/h (1 Bft) 0,00 %
21.09.2015 23:04 9,5 C 79 % 1012,9 hPa 0,0 l/m 0,0 km/h (0 Bft) O-NO 68 0 min 0,000 mm 0,0 UV-I 0 W/m 6,0 C 9,5 C 0,0 km/h (0 Bft) 0,00 %
21.09.2015 23:09 9,4 C 80 % 1012,9 hPa 0,0 l/m 0,0 km/h (0 Bft) O-NO 58 0 min 0,000 mm 0,0 UV-I 0 W/m 6,1 C 9,4 C 0,0 km/h (0 Bft) 0,00 %
21.09.2015 23:14 9,3 C 80 % 1012,8 hPa 0,0 l/m 0,0 km/h (0 Bft) O 96 0 min 0,000 mm 0,0 UV-I 0 W/m 6,0 C 9,3 C 0,0 km/h (0 Bft) 0,00 %
21.09.2015 23:19 9,3 C 80 % 1012,6 hPa 0,0 l/m 0,0 km/h (0 Bft) O-NO 66 0 min 0,000 mm 0,0 UV-I 0 W/m 6,0 C 9,3 C 0,0 km/h (0 Bft) 0,00 %
21.09.2015 23:24 9,2 C 81 % 1012,8 hPa 0,0 l/m 0,0 km/h (0 Bft) O-NO 78 0 min 0,000 mm 0,0 UV-I 0 W/m 6,1 C 9,2 C 0,0 km/h (0 Bft) 0,00 %
21.09.2015 23:29 9,2 C 81 % 1012,6 hPa 0,0 l/m 0,0 km/h (0 Bft) O-NO 69 0 min 0,000 mm 0,0 UV-I 0 W/m 6,1 C 9,2 C 0,0 km/h (0 Bft) 0,00 %
21.09.2015 23:34 9,1 C 81 % 1012,6 hPa 0,0 l/m 0,0 km/h (0 Bft) O-NO 67 0 min 0,000 mm 0,0 UV-I 0 W/m 6,0 C 9,1 C 0,0 km/h (0 Bft) 0,00 %
21.09.2015 23:39 9,1 C 81 % 1012,6 hPa 0,0 l/m 0,0 km/h (0 Bft) O-NO 65 0 min 0,000 mm 0,0 UV-I 0 W/m 6,0 C 9,1 C 0,0 km/h (0 Bft) 0,00 %
21.09.2015 23:44 9,0 C 82 % 1012,7 hPa 0,0 l/m 0,0 km/h (0 Bft) NO 54 0 min 0,000 mm 0,0 UV-I 0 W/m 6,1 C 9,0 C 0,0 km/h (0 Bft) 0,00 %
21.09.2015 23:49 9,0 C 83 % 1012,5 hPa 0,0 l/m 0,0 km/h (0 Bft) O-NO 66 0 min 0,000 mm 0,0 UV-I 0 W/m 6,3 C 9,0 C 0,0 km/h (0 Bft) 0,00 %
21.09.2015 23:54 8,9 C 83 % 1012,5 hPa 0,0 l/m 0,0 km/h (0 Bft) O-NO 76 0 min 0,000 mm 0,0 UV-I 0 W/m 6,2 C 8,9 C 0,0 km/h (0 Bft) 0,00 %
21.09.2015 23:59 8,8 C 83 % 1012,4 hPa 0,0 l/m 0,0 km/h (0 Bft) O-NO 66 0 min 0,000 mm 0,0 UV-I 0 W/m 6,1 C 8,8 C 0,0 km/h (0 Bft) 0,00 %
_ Min-Zeit 06:43 15:54 23:59 - 00:03 - - - - - - 15:54 06:43 00:03 00:03
Minimum _ 5,1 C 32 % 1012,4 hPa - 0,0 km/h (0 Bft) - - - - - - 1,8 C 5,1 C 0,0 km/h (0 Bft) 0,00 %
_ Max-Zeit 13:59 07:28 00:03 00:03 12:59 - - 07:03 00:03 12:39 14:04 08:08 13:59 09:13 00:03
Maximum _ 19,8 C 99 % 1022,2 hPa 0,0 l/m 6,5 km/h
S (2 Bft)
- - 5 min 0,000 mm 3,0 UV-I 833 W/m 9,1 C 19,8 C 7,9 km/h
S-SW (2 Bft)
0,00 %
Durchschnitt _ 12,7 C 67 % 1017,4 hPa #0,0 l/m 0,3 km/h (0 Bft) S-SW - #9:15 h #0,000 mm 1,5 UV-I 453 W/m 5,8 C 12,7 C 0,8 km/h (0 Bft) 0,00 %